Location: Gollag?dem
(16.8053°N, 80.8024°E)
Time: 14:29:40
(UTC+00:00)

Cosmos 1023 Rocket - Pass Details

Date: 13 August 2020
Orbit: 737 x 772 km, 74.1° (Epoch: 24 September)

Event Time Altitude Azimuth Distance (km) Brightness Sun altitude
Rises 13:55:27 0° 192° (SSW) 3,220 7.7 -12.8°
Reaches altitude 10° 13:57:49 10° 192° (SSW) 2,299 6.9 -13.3°
Maximum altitude 14:03:03 87° 103° (ESE) 774 4.5 -14.5°
Drops below altitude 10° 14:08:19 10° 14° (NNE) 2,310 7.1 -15.7°
Sets 14:10:41 0° 14° (NNE) 3,238 7.8 -16.2°
